Terug naar catalogus

COSMOS 1290

ActiefNavigatieLEO
NORAD 12639·PAYLOAD·🇷🇺 Russia

Gelanceerd Aug 6, 1981 vanaf Plesetsk Cosmodrome

Loading…

Volgende Passages (komende 24 uur)

TLE

VersSource: Space-Track

Epoch: Sep 14, 2026, 07:52 UTC

1 12639U 81074D   26257.32780419 -.00000011  00000-0  29133-4 0  9992
2 12639  74.0303 101.3287 0014680  43.0595 129.7413 12.52836424 62829

Volg COSMOS 1290 in realtime met AllMySat

Download on the App Store